Location: Budapest
(47.4979°N, 19.0402°E)
Time: 14:40:26
(UTC+01:00)

Vanguard 2 Rocket - All Passes

Search period start: 23 January 2018 00:00
Search period end: 02 February 2018 00:00
Orbit: 556 x 3326 km, 32.9° (Epoch: 22 January)

Date Brightness Start Highest point End Pass type
(mag) Time Alt. Az. Time Alt. Az. Time Alt. Az.
23 Jan - 05:31:35 10° SSW 05:40:30 20° SSE 05:47:02 10° ESE visible
23 Jan - 07:45:16 10° SW 07:54:10 27° S 08:00:00 10° ESE daylight
23 Jan - 10:01:06 10° WSW 10:06:43 21° SSW 10:10:46 10° SSE daylight
24 Jan - 04:31:56 10° S 04:40:29 17° SSE 04:47:08 10° ESE visible
24 Jan - 06:44:14 10° SW 06:54:35 28° S 07:01:21 10° ESE visible
24 Jan - 08:59:58 10° WSW 09:07:40 27° SSW 09:12:47 10° SE daylight
24 Jan - 11:17:31 10° SW 11:19:27 11° SSW 11:21:09 10° SSW daylight
25 Jan - 03:33:26 10° S 03:40:17 14° SSE 03:46:06 10° ESE visible
25 Jan - 05:43:20 10° SW 05:54:43 27° SSE 06:02:23 10° ESE visible
25 Jan - 07:58:40 10° WSW 08:08:22 31° S 08:14:31 10° SE daylight
25 Jan - 10:15:27 10° WSW 10:20:41 19° SSW 10:24:34 10° SSE daylight
26 Jan - 04:42:45 10° SSW 04:54:36 24° SSE 05:03:01 10° ESE visible
26 Jan - 06:57:17 10° SW 07:08:47 33° S 07:16:00 10° ESE daylight
26 Jan - 09:13:58 10° WSW 09:21:44 26° SSW 09:26:55 10° SE daylight
27 Jan - 03:42:47 10° SSW 03:54:17 21° SSE 04:03:05 10° ESE visible
27 Jan - 05:55:54 10° SW 06:08:53 33° S 06:17:13 10° ESE visible
27 Jan - 08:12:24 10° WSW 08:22:29 32° SSW 08:28:49 10° SE daylight
27 Jan - 10:30:16 10° WSW 10:34:29 15° SW 10:37:50 10° S daylight
28 Jan - 02:43:50 10° S 02:53:52 17° SSE 03:02:11 10° ESE visible
28 Jan - 04:54:45 10° SW 05:08:41 32° SSE 05:18:05 10° ESE visible
28 Jan - 07:10:42 10° WSW 07:22:54 36° S 07:30:26 10° ESE daylight
28 Jan - 09:28:13 10° WSW 09:35:38 23° SSW 09:40:44 10° SSE daylight
29 Jan - 01:46:58 10° SSE 01:53:25 13° SE 01:59:18 10° ESE visible
29 Jan - 03:54:02 10° SSW 04:08:15 29° SSE 04:18:33 10° ESE visible
29 Jan - 06:09:00 10° WSW 06:22:59 38° S 06:31:46 10° ESE visible
29 Jan - 08:26:20 10° WSW 08:36:28 30° SSW 08:42:54 10° SE daylight
29 Jan - 10:46:30 10° SW 10:48:06 11° SW 10:49:34 10° SSW daylight
30 Jan - 02:54:00 10° SSW 03:07:41 25° SSE 03:18:25 10° ESE visible
30 Jan - 05:07:26 10° SW 05:22:44 38° S 05:32:46 10° ESE visible
30 Jan - 07:24:24 10° WSW 07:36:57 37° SSW 07:44:40 10° SE daylight
30 Jan - 09:42:48 10° WSW 09:49:20 19° SW 09:54:05 10° S daylight
31 Jan - 01:54:58 10° S 02:07:04 20° SE 02:17:23 10° ESE visible
31 Jan - 04:06:13 10° SW 04:22:13 36° SSE 04:33:25 10° ESE visible
31 Jan - 06:22:26 10° WSW 06:37:02 41° S 06:46:06 10° ESE visible
31 Jan - 08:40:31 10° WSW 08:50:17 27° SSW 08:56:42 10° SSE daylight
01 Feb - 00:57:41 10° SSE 01:06:31 15° SE 01:14:41 10° ESE visible
01 Feb - 03:05:34 10° SSW 03:21:28 32° SSE 03:33:37 10° ESE visible
01 Feb - 05:20:35 10° WSW 05:36:45 42° S 05:47:13 10° ESE visible
01 Feb - 07:38:19 10° WSW 07:50:51 35° SSW 07:58:42 10° SE daylight
01 Feb - 09:58:07 10° WSW 10:02:50 14° SW 10:06:38 10° SSW daylight
